KF7MJQ-10 Weather Reports


Display with metric or nautical units.
time (UTC)temp
F
wind
direction
speed
MPH
gust
MPH
rain 1hr
in
rain 24hr
in
rain mn
in
humidity
%
barometer
mb
20260901001008 62 321 0.0 4.0 0.00 0.00 0.00 1 1008.8
20260901000506 62 290 0.0 4.0 0.00 0.00 0.00 1 1009.0
20260901000008 62 309 0.0 4.0 0.00 0.00 0.00 1 1008.9
20260831235546 62 291 0.0 4.0 0.00 0.00 0.00 1 1009.0
20260831235045 62 291 0.0 4.0 0.00 0.00 0.00 1 1008.9
20260831234543 62 330 0.0 6.0 0.00 0.00 0.00 1 1009.0
20260831234041 62 34 1.0 6.0 0.00 0.00 0.00 1 1009.1
20260831233540 62 56 1.0 6.0 0.00 0.00 0.00 1 1009.1
20260831233040 62 77 0.0 5.0 0.00 0.00 0.00 1 1009.0
20260831232520 62 70 0.0 6.0 0.00 0.00 0.00 1 1009.0
20260831232018 62 308 1.0 6.0 0.00 0.00 0.00 1 1009.1
20260831231517 62 293 0.0 3.0 0.00 0.00 0.00 1 1009.1
20260831231018 62 308 0.0 5.0 0.00 0.00 0.00 1 1009.1
20260831230515 62 289 0.0 5.0 0.00 0.00 0.00 1 1009.1
20260831230013 62 330 0.0 2.0 0.00 0.00 0.00 1 1009.3
20260831225554 62 285 0.0 2.0 0.00 0.00 0.00 1 1009.3
20260831225054 62 307 0.0 1.0 0.00 0.00 0.00 1 1009.3
20260831224555 62 356 0.0 2.0 0.00 0.00 0.00 1 1009.2
20260831224050 62 88 0.0 2.0 0.00 0.00 0.00 1 1009.2
20260831223549 62 333 0.0 3.0 0.00 0.00 0.00 1 1009.4
20260831223047 62 60 0.0 3.0 0.00 0.00 0.00 1 1009.5
20260831222528 62 223 0.0 2.0 0.00 0.00 0.00 1 1009.4
20260831222033 63 239 0.0 6.0 0.00 0.00 0.00 1 1009.4
20260831221524 63 288 0.0 6.0 0.00 0.00 0.00 1 1009.4
20260831221022 63 56 0.0 3.0 0.00 0.00 0.00 1 1009.6
20260831220521 63 226 0.0 5.0 0.00 0.00 0.00 1 1009.6
20260831220020 63 299 0.0 5.0 0.00 0.00 0.00 1 1009.8
20260831215503 63 30 0.0 4.0 0.00 0.00 0.00 1 1009.8
20260831215100 63 78 0.0 4.0 0.00 0.00 0.00 1 1009.8
20260831214600 65 297 0.0 4.0 0.00 0.00 0.00 1 1009.9
20260831214056 65 302 1.0 4.0 0.00 0.00 0.00 1 1010.0
20260831213555 66 58 1.0 4.0 0.00 0.00 0.00 1 1010.0
20260831213056 66 283 0.0 4.0 0.00 0.00 0.00 1 1010.1
20260831212535 67 151 0.0 4.0 0.00 0.00 0.00 1 1010.1
20260831212033 67 44 0.0 5.0 0.00 0.00 0.00 1 1010.1
20260831211534 68 281 1.0 5.0 0.00 0.00 0.00 1 1010.2
20260831211030 68 56 0.0 3.0 0.00 0.00 0.00 1 1010.2
20260831210529 69 257 1.0 3.0 0.00 0.00 0.00 1 1010.2
20260831210028 69 226 0.0 5.0 0.00 0.00 0.00 1 1010.3
20260831205509 69 202 1.0 5.0 0.00 0.00 0.00 1 1010.3
20260831205008 69 291 0.0 3.0 0.00 0.00 0.00 1 1010.3
20260831204506 69 285 1.0 3.0 0.00 0.00 0.00 1 1010.3
20260831204005 68 58 0.0 3.0 0.00 0.00 0.00 1 1010.4
20260831203504 68 231 0.0 5.0 0.00 0.00 0.00 1 1010.5
20260831203003 69 334 1.0 5.0 0.00 0.00 0.00 1 1010.6
20260831202600 69 255 0.0 4.0 0.00 0.00 0.00 1 1010.7
20260831202041 69 238 0.0 4.0 0.00 0.00 0.00 1 1010.8
20260831201540 70 346 0.0 3.0 0.00 0.00 0.00 1 1010.7
20260831201039 70 111 0.0 2.0 0.00 0.00 0.00 1 1010.7
20260831200537 70 129 0.0 4.0 0.00 0.00 0.00 1 1010.8
20260831200040 69 238 0.0 4.0 0.00 0.00 0.00 1 1010.9
20260831195535 70 217 0.0 3.0 0.00 0.00 0.00 1 1011.0
20260831195015 70 246 0.0 3.0 0.00 0.00 0.00 1 1011.0
20260831194514 69 44 0.0 5.0 0.00 0.00 0.00 1 1010.9
20260831194013 69 241 0.0 5.0 0.00 0.00 0.00 1 1011.0
20260831193511 69 281 0.0 4.0 0.00 0.00 0.00 1 1011.2
20260831193011 70 290 0.0 3.0 0.00 0.00 0.00 1 1011.2
20260831192511 69 267 0.0 3.0 0.00 0.00 0.00 1 1011.2
20260831192049 69 195 0.0 3.0 0.00 0.00 0.00 1 1011.4
20260831191558 69 70 0.0 4.0 0.00 0.00 0.00 1 1011.4
20260831191046 70 298 0.0 2.0 0.00 0.00 0.00 1 1011.5
20260831190546 70 224 0.0 2.0 0.00 0.00 0.00 1 1011.6
20260831190047 70 311 0.0 3.0 0.00 0.00 0.00 1 1011.6
20260831185541 70 81 0.0 3.0 0.00 0.00 0.00 1 1011.7
20260831185027 69 252 0.0 3.0 0.00 0.00 0.00 1 1011.7
20260831184522 69 303 0.0 2.0 0.00 0.00 0.00 1 1011.8
20260831184028 68 218 0.0 2.0 0.00 0.00 0.00 1 1011.9
20260831183520 68 274 0.0 2.0 0.00 0.00 0.00 1 1011.9
20260831183017 68 232 0.0 2.0 0.00 0.00 0.00 1 1012.0
20260831182519 68 280 0.0 2.0 0.00 0.00 0.00 1 1012.0
20260831182057 68 58 0.0 2.0 0.00 0.00 0.00 1 1012.0
20260831181556 68 284 0.0 2.0 0.00 0.00 0.00 1 1012.0
20260831181057 67 250 0.0 3.0 0.00 0.00 0.00 1 1012.0
20260831180554 67 248 1.0 3.0 0.00 0.00 0.00 1 1012.0
20260831180050 66 231 0.0 3.0 0.00 0.00 0.00 1 1012.1
20260831175552 66 236 0.0 3.0 0.00 0.00 0.00 1 1012.2
20260831175031 65 226 0.0 3.0 0.00 0.00 0.00 1 1012.1
20260831174529 64 238 0.0 2.0 0.00 0.00 0.00 1 1012.1
20260831174032 64 212 0.0 2.0 0.00 0.00 0.00 1 1012.2
20260831173526 63 238 0.0 2.0 0.00 0.00 0.00 1 1012.2
20260831173024 63 252 0.0 3.0 0.00 0.00 0.00 1 1012.2
20260831172523 63 236 0.0 2.0 0.00 0.00 0.00 1 1012.3
20260831172009 62 229 0.0 2.0 0.00 0.00 0.00 1 1012.3
20260831171508 62 236 0.0 1.0 0.00 0.00 0.00 1 1012.3
20260831171002 62 229 0.0 2.0 0.00 0.00 0.00 1 1012.3
20260831170601 62 94 0.0 2.0 0.00 0.00 0.00 1 1012.3
20260831170059 62 340 0.0 2.0 0.00 0.00 0.00 1 1012.4
20260831165557 61 217 0.0 1.0 0.00 0.00 0.00 1 1012.4
20260831165038 61 67 0.0 1.0 0.00 0.00 0.00 1 1012.4
20260831164546 61 233 0.0 1.0 0.00 0.00 0.00 1 1012.5
20260831164036 61 236 0.0 1.0 0.00 0.00 0.00 1 1012.6
20260831163535 61 229 0.0 1.0 0.00 0.00 0.00 1 1012.6
20260831163038 60 145 0.0 1.0 0.00 0.00 0.00 1 1012.6
20260831162536 59 32 0.0 1.0 0.00 0.00 0.00 1 1012.7
20260831162012 58 22 0.0 0.0 0.00 0.00 0.00 1 1012.7
20260831161512 58 20 0.0 0.0 0.00 0.00 0.00 1 1012.8
20260831161010 57 27 0.0 0.0 0.00 0.00 0.00 1 1012.8
20260831160509 57 21 0.0 1.0 0.00 0.00 0.00 1 1012.9
20260831160009 57 37 0.0 1.0 0.00 0.00 0.00 1 1012.9
20260831155509 57 43 0.0 1.0 0.00 0.00 0.00 1 1012.9
20260831155052 57 44 0.0 1.0 0.00 0.00 0.00 1 1012.9
20260831154547 56 15 0.0 1.0 0.00 0.00 0.00 1 1012.9
20260831154046 56 56 0.0 1.0 0.00 0.00 0.00 1 1013.0
20260831153544 56 218 0.0 0.0 0.00 0.00 0.00 1 1012.9
20260831153046 55 218 0.0 0.0 0.00 0.00 0.00 1 1012.8
20260831152541 55 221 0.0 0.0 0.00 0.00 0.00 1 1012.9
20260831152026 55 221 0.0 0.0 0.00 0.00 0.00 1 1013.0
20260831151521 55 221 0.0 0.0 0.00 0.00 0.00 1 1013.0
20260831151020 54 221 0.0 0.0 0.00 0.00 0.00 1 1013.0
20260831150522 54 220 0.0 0.0 0.00 0.00 0.00 1 1013.0
20260831150020 53 221 0.0 0.0 0.00 0.00 0.00 1 1013.0
20260831145518 53 221 0.0 0.0 0.00 0.00 0.00 1 1013.0
20260831145119 53 221 0.0 0.0 0.00 0.00 0.00 1 1013.0
20260831144558 53 221 0.0 0.0 0.00 0.00 0.00 1 1013.0
20260831144057 53 221 0.0 0.0 0.00 0.00 0.00 1 1013.0
20260831143555 53 221 0.0 0.0 0.00 0.00 0.00 1 1013.0
20260831143058 0 0.0 0.0 0.00 0.00 0.00 1013.1
20260831142552 0 0.0 0.0 0.00 0.00 0.00 1013.1
20260831142050 0 0.0 0.0 0.00 0.00 0.00 1013.2
20260831141533 0 0.0 0.0 0.00 0.00 0.00 1013.1
20260831141031 0 0.0 0.0 0.00 0.00 0.00 1013.2
20260831140529 0 0.0 0.0 0.00 0.00 0.00 1013.2
20260831140028 0 0.0 0.0 0.00 0.00 0.00 1013.2
20260831135527 0 0.0 0.0 0.00 0.00 0.00 1013.2
20260831135025 0 0.0 0.0 0.00 0.00 0.00 1013.1
20260831134506 0 0.0 0.0 0.00 0.00 0.00 1013.1
20260831134005 0 0.0 0.0 0.00 0.00 0.00 1013.2
20260831133503 0 0.0 0.0 0.00 0.00 0.00 1013.1
20260831133004 0 0.0 0.0 0.00 0.00 0.00 1013.2
20260831132601 0 0.0 0.0 0.00 0.00 0.00 1013.1
20260831132059 0 0.0 0.0 0.00 0.00 0.00 1013.1
20260831131540 0 0.0 0.0 0.00 0.00 0.00 1013.1
20260831131039 0 0.0 0.0 0.00 0.00 0.00 1013.2
20260831130539 0 0.0 0.0 0.00 0.00 0.00 1013.2
20260831130035 0 0.0 0.0 0.00 0.00 0.00 1013.3
20260831125538 0 0.0 0.0 0.00 0.00 0.00 1013.3
20260831125033 0 0.0 0.0 0.00 0.00 0.00 1013.4
20260831124534 0 0.0 0.0 0.00 0.00 0.00 1013.4
20260831124015 0 0.0 0.0 0.00 0.00 0.00 1013.4
20260831123510 0 0.0 0.0 0.00 0.00 0.00 1013.5
20260831123009 0 0.0 0.0 0.00 0.00 0.00 1013.5
20260831122510 0 0.0 0.0 0.00 0.00 0.00 1013.6
20260831122007 0 0.0 0.0 0.00 0.00 0.00 1013.6
20260831121548 0 0.0 0.0 0.00 0.00 0.00 1013.7
20260831121047 0 0.0 0.0 0.00 0.00 0.00 1013.7
20260831120546 0 0.0 0.0 0.00 0.00 0.00 1013.7
20260831120048 0 0.0 0.0 0.00 0.00 0.00 1013.8
20260831115543 0 0.0 0.0 0.00 0.00 0.00 1013.8
20260831115040 0 0.0 0.0 0.00 0.00 0.00 1013.8
20260831114535 0 0.0 0.0 0.00 0.00 0.00 1013.8
20260831114021 0 0.0 0.0 0.00 0.00 0.00 1013.9
20260831113519 0 0.0 0.0 0.00 0.00 0.00 1013.9
20260831113018 0 0.0 0.0 0.00 0.00 0.00 1014.0
20260831112517 0 0.0 0.0 0.00 0.00 0.00 1014.0
20260831112015 0 0.0 0.0 0.00 0.00 0.00 1014.0
20260831111611 0 0.0 0.0 0.00 0.00 0.00 1014.0
20260831111054 0 0.0 0.0 0.00 0.00 0.00 1014.0
20260831110556 0 0.0 0.0 0.00 0.00 0.00 1014.0
20260831110051 0 0.0 0.0 0.00 0.00 0.00 1014.1
20260831105551 0 0.0 0.0 0.00 0.00 0.00 1014.1
20260831105051 0 0.0 0.0 0.00 0.00 0.00 1014.1
20260831104543 0 0.0 0.0 0.00 0.00 0.00 1014.2
20260831104034 0 0.0 0.0 0.00 0.00 0.00 1014.3
20260831103531 0 0.0 0.0 0.00 0.00 0.00 1014.3
20260831103028 0 0.0 0.0 0.00 0.00 0.00 1014.2
20260831102527 0 0.0 0.0 0.00 0.00 0.00 1014.2
20260831102023 0 0.0 0.0 0.00 0.00 0.00 1014.3
20260831101504 0 0.0 0.0 0.00 0.00 0.00 1014.2
20260831101003 0 0.0 0.0 0.00 0.00 0.00 1014.2
20260831100501 0 0.0 0.0 0.00 0.00 0.00 1014.2
20260831100100 0 0.0 0.0 0.00 0.00 0.00 1014.3
20260831095558 0 0.0 0.0 0.00 0.00 0.00 1014.2
20260831095101 0 0.0 0.0 0.00 0.00 0.00 1014.3
20260831094540 0 0.0 0.0 0.00 0.00 0.00 1014.4
20260831094038 0 0.0 0.0 0.00 0.00 0.00 1014.5
20260831093535 0 0.0 0.0 0.00 0.00 0.00 1014.6
20260831093040 0 0.0 0.0 0.00 0.00 0.00 1014.6
20260831092532 0 0.0 0.0 0.00 0.00 0.00 1014.6
20260831092031 0 0.0 0.0 0.00 0.00 0.00 1014.7
20260831091512 0 0.0 0.0 0.00 0.00 0.00 1014.7
20260831091014 0 0.0 0.0 0.00 0.00 0.00 1014.8
20260831090509 0 0.0 0.0 0.00 0.00 0.00 1014.9
20260831090008 0 0.0 0.0 0.00 0.00 0.00 1014.9
20260831085505 0 0.0 0.0 0.00 0.00 0.00 1014.9
20260831085005 0 0.0 0.0 0.00 0.00 0.00 1014.9
20260831084603 0 0.0 0.0 0.00 0.00 0.00 1014.9
20260831084044 0 0.0 0.0 0.00 0.00 0.00 1015.0
20260831083543 0 0.0 0.0 0.00 0.00 0.00 1015.0
20260831083047 0 0.0 0.0 0.00 0.00 0.00 1015.0
20260831082540 0 0.0 0.0 0.00 0.00 0.00 1015.1
20260831082039 0 0.0 0.0 0.00 0.00 0.00 1015.1
20260831081538 0 0.0 0.0 0.00 0.00 0.00 1015.2
20260831081022 0 0.0 0.0 0.00 0.00 0.00 1015.3
20260831080518 0 0.0 0.0 0.00 0.00 0.00 1015.3
20260831080024 0 0.0 0.0 0.00 0.00 0.00 1015.4
20260831075514 0 0.0 0.0 0.00 0.00 0.00 1015.4
20260831075014 0 0.0 0.0 0.00 0.00 0.00 1015.5
20260831074514 0 0.0 0.0 0.00 0.00 0.00 1015.5
20260831074054 0 0.0 0.0 0.00 0.00 0.00 1015.6
20260831073553 0 0.0 0.0 0.00 0.00 0.00 1015.6
20260831073057 0 0.0 0.0 0.00 0.00 0.00 1015.6
20260831072549 0 0.0 0.0 0.00 0.00 0.00 1015.7
20260831072047 0 0.0 0.0 0.00 0.00 0.00 1015.7
20260831071546 0 0.0 0.0 0.00 0.00 0.00 1015.7
20260831071028 0 0.0 0.0 0.00 0.00 0.00 1015.8
20260831070526 0 0.0 0.0 0.00 0.00 0.00 1015.9
20260831070031 0 0.0 0.0 0.00 0.00 0.00 1016.0
20260831065526 0 0.0 0.0 0.00 0.00 0.00 1016.0
20260831065025 0 0.0 0.0 0.00 0.00 0.00 1016.2
20260831064521 0 0.0 0.0 0.00 0.00 0.00 1016.3
20260831064001 0 0.0 0.0 0.00 0.00 0.00 1016.3
20260831063600 0 0.0 0.0 0.00 0.00 0.00 1016.3
20260831063059 0 0.0 0.0 0.00 0.00 0.00 1016.5
20260831062558 0 0.0 0.0 0.00 0.00 0.00 1016.4
20260831062056 57 275 0.0 1.0 0.00 0.00 0.00 1 1016.5
20260831061555 57 275 0.0 1.0 0.00 0.00 0.00 1 1016.5
20260831061035 58 277 0.0 0.0 0.00 0.00 0.00 1 1016.6
20260831060533 58 277 0.0 0.0 0.00 0.00 0.00 1 1016.6
20260831060032 58 277 0.0 0.0 0.00 0.00 0.00 1 1016.6
20260831055530 58 278 0.0 0.0 0.00 0.00 0.00 1 1016.6
20260831055031 58 277 0.0 0.0 0.00 0.00 0.00 1 1016.7
20260831054530 58 278 0.0 0.0 0.00 0.00 0.00 1 1016.8
20260831054012 58 278 0.0 0.0 0.00 0.00 0.00 1 1016.8
20260831053508 58 278 0.0 0.0 0.00 0.00 0.00 1 1016.8
20260831053007 58 278 0.0 0.0 0.00 0.00 0.00 1 1016.9
20260831052506 58 278 0.0 0.0 0.00 0.00 0.00 1 1017.0
20260831052005 58 278 0.0 0.0 0.00 0.00 0.00 1 1017.0
20260831051502 58 278 0.0 0.0 0.00 0.00 0.00 1 1017.1
20260831051043 58 278 0.0 0.0 0.00 0.00 0.00 1 1017.1
20260831050542 58 278 0.0 0.0 0.00 0.00 0.00 1 1017.2
20260831050057 58 278 0.0 0.0 0.00 0.00 0.00 1 1017.2
20260831045539 58 278 0.0 0.0 0.00 0.00 0.00 1 1017.2
20260831045038 58 278 0.0 0.0 0.00 0.00 0.00 1 1017.2
20260831044548 58 278 0.0 0.0 0.00 0.00 0.00 1 1017.2
20260831044018 58 278 0.0 0.0 0.00 0.00 0.00 1 1017.1
20260831043519 58 278 0.0 0.0 0.00 0.00 0.00 1 1017.2
20260831043015 58 278 0.0 1.0 0.00 0.00 0.00 1 1017.2
20260831042514 58 291 0.0 0.0 0.00 0.00 0.00 1 1017.3
20260831042013 59 326 0.0 0.0 0.00 0.00 0.00 1 1017.3
20260831041516 59 326 0.0 1.0 0.00 0.00 0.00 1 1017.3
20260831041057 58 326 0.0 1.0 0.00 0.00 0.00 1 1017.4
20260831040554 59 309 0.0 1.0 0.00 0.00 0.00 1 1017.4
20260831040052 59 68 0.0 1.0 0.00 0.00 0.00 1 1017.4
20260831035551 59 68 0.0 1.0 0.00 0.00 0.00 1 1017.4
20260831035049 58 66 0.0 1.0 0.00 0.00 0.00 1 1017.4
20260831034553 58 207 0.0 1.0 0.00 0.00 0.00 1 1017.4
20260831034030 58 155 0.0 1.0 0.00 0.00 0.00 1 1017.3
20260831033529 58 60 0.0 0.0 0.00 0.00 0.00 1 1017.3
20260831033029 59 60 0.0 1.0 0.00 0.00 0.00 1 1017.3
20260831032532 58 60 0.0 1.0 0.00 0.00 0.00 1 1017.3
20260831032026 58 86 0.0 1.0 0.00 0.00 0.00 1 1017.4
20260831031528 58 102 0.0 0.0 0.00 0.00 0.00 1 1017.4
20260831031006 58 101 0.0 1.0 0.00 0.00 0.00 1 1017.3
20260831030504 58 101 0.0 1.0 0.00 0.00 0.00 1 1017.4
20260831030003 58 103 0.0 0.0 0.00 0.00 0.00 1 1017.3
20260831025502 59 103 0.0 0.0 0.00 0.00 0.00 1 1017.4
20260831025100 59 103 0.0 0.0 0.00 0.00 0.00 1 1017.4
20260831024619 59 308 0.0 0.0 0.00 0.00 0.00 1 1017.4
20260831024057 59 307 0.0 0.0 0.00 0.00 0.00 1 1017.5
20260831023538 60 308 0.0 0.0 0.00 0.00 0.00 1 1017.5
20260831023037 60 65 0.0 0.0 0.00 0.00 0.00 1 1017.6
20260831022536 61 280 0.0 1.0 0.00 0.00 0.00 1 1017.6
20260831022034 61 56 0.0 1.0 0.00 0.00 0.00 1 1017.7
20260831021533 61 57 0.0 1.0 0.00 0.00 0.00 1 1017.7
20260831021033 62 72 0.0 1.0 0.00 0.00 0.00 1 1017.8
20260831020513 62 103 0.0 1.0 0.00 0.00 0.00 1 1017.8
20260831020011 62 106 0.0 1.0 0.00 0.00 0.00 1 1017.8
20260831015509 62 259 0.0 3.0 0.00 0.00 0.00 1 1017.9
20260831015013 63 71 0.0 3.0 0.00 0.00 0.00 1 1017.9
20260831014511 64 57 0.0 1.0 0.00 0.00 0.00 1 1017.9
20260831014005 64 103 0.0 2.0 0.00 0.00 0.00 1 1017.9
20260831013547 64 224 0.0 2.0 0.00 0.00 0.00 1 1018.0
20260831013046 64 224 0.0 2.0 0.00 0.00 0.00 1 1018.0
20260831012545 65 54 0.0 5.0 0.00 0.00 0.00 1 1018.0
20260831012043 65 328 0.0 5.0 0.00 0.00 0.00 1 1018.1
20260831011544 66 53 0.0 1.0 0.00 0.00 0.00 1 1018.1
20260831011040 65 279 0.0 1.0 0.00 0.00 0.00 1 1018.1
20260831010521 65 226 0.0 3.0 0.00 0.00 0.00 1 1018.2
20260831010029 65 253 0.0 2.0 0.00 0.00 0.00 1 1018.2
20260831005518 65 224 0.0 2.0 0.00 0.00 0.00 1 1018.2
20260831005017 64 224 0.0 2.0 0.00 0.00 0.00 1 1018.2
20260831004515 64 243 0.0 4.0 0.00 0.00 0.00 1 1018.3
20260831004013 64 287 0.0 4.0 0.00 0.00 0.00 1 1018.2
20260831003555 65 26 0.0 4.0 0.00 0.00 0.00 1 1018.3
20260831003054 65 63 0.0 0.0 0.00 0.00 0.00 1 1018.3
20260831002552 65 52 0.0 2.0 0.00 0.00 0.00 1 1018.5
20260831002050 65 325 0.0 3.0 0.00 0.00 0.00 1 1018.5
20260831001554 65 271 0.0 3.0 0.00 0.00 0.00 1 1018.5
20260831001048 65 356 0.0 1.0 0.00 0.00 0.00 1 1018.6